SCP
0 0 0 0 -0 -0 -0 0 0 0 0 0 0 0 -0 -0 -0 -0 -0 -0 -0 -0 -0 -0 -0 -0 -0 -0 0 0 0 0 -0 -0 -0 -0 -0 -0 -0 -0 -0 0 -0
0 0 0 0 0 0 0 0 0 0 0 0 -0 -0 -0 -0 -0 -0 -0 -0 -0 -0 -0 -0 -0 -0 -0 -0 -0 0 0 0 0 0 0 0 0 -0 -0 -0 -0 0 -0
0 0 0 0 0 0 0 0 0 0 0 -0 -0 -0 -0 -0 -0 -0 -0 -0 -0 -0 -0 -0 -0 -0 -0 -0 -0 -0 -0 -0 0 0 -0 0 -0 0 0 0 0 0 0
0 0 0 0 0 0 0 0 0 0 -0 -0 -0 -0 -0 -0 -0 -0 -0 -0 -0 -0 -0 -0 -0 -0 -0 -0 -0 -0 -0 -0 -0 -0 0 0 0 0 0 0 0 0 0
0 0 0 0 0 0 0 0 0 0 -0 -0 -0 -0 -0 -0 -0 -0 -0 -0 -0 -0 -0 -0 -0 -0 -0 0 -0 -0 -0 -0 -0 0 0 0 0 0 0 0 0 0 0
0 0 0 0 0 0 0 0 0 0 -0 -0 -0 -0 -0 -0 -0 -0 -0 -0 -0 -0 -0 -0 0 0 0 0 0 0 -0 -0 -0 0 0 0 0 0 0 0 0 0 0
0 0 0 0 0 0 0 0 0 0 -0 -0 -0 -0 -0 -0 -0 -0 -0 -0 -0 -0 0 0 0 0 0 0 -0 -0 -0 -0 -0 -0 0 0 0 0 0 0 0 0 0
0 0 0 0 0 0 0 0 0 0 0 0 -0 -0 -0 -0 -0 -0 -0 -0 0 0 0 0 0 0 0 0 -0 -0 -0 -0 0 0 0 0 0 0 0 0 0 0 0
0 0 0 0 0 0 0 0 0 0 0 0 0 -0 -0 0 0 0 0 0 0 0 0 0 0 0 0 0 0 0 0 0 0 0 0 0 0 0 0 0 0 0 0
0 0 0 0 0 0 0 0 0 0 0 0 0 0 0 0 0 0 0 0 0 0 0 0 0 0 0 0 0 -0 0 0 0 0 0 0 0 0 0 0 0 0 0
0 0 0 0 0 0 0 0 0 0 0 0 0 0 0 0 0 0 0 0 0 0 0 0 0 0 0 0 0 0 0 0 0 0 0 0 0 0 0 0 0 0 0
0 0 0 0 0 0 0 0 0 0 0 0 0 0 0 0 0 0 0 0 0 0 0 0 0 0 0 0 0 0 0 0 0 0 0 0 0 0 0 0 0 0 0
0 0 0 0 0 0 0 0 0 0 0 0 0 0 0 0 0 0 0 0 0 0 0 0 0 0 0 0 0 0 0 0 0 0 0 0 0 0 0 0 0 0 0
0 0 0 0 0 0 0 0 0 0 0 0 0 0 0 0 0 0 0 0 0 0 0 0 0 0 0 0 0 0 0 0 0 0 0 0 0 0 0 0 0 0 0
0 0 0 0 0 0 0 0 0 0 0 0 0 0 0 0 0 0 0 0 0 0 0 0 0 0 0 0 0 0 0 0 0 0 0 0 0 0 0 0 0 0 0
0 0 0 0 0 0 0 0 0 0 0 0 0 0 0 0 0 0 0 0 0 0 0 0 0 0 0 0 0 0 0 0 0 0 0 0 0 0 0 0 0 0 0
0 0 0 0 0 0 0 0 0 0 0 0 0 0 0 0 0 0 0 0 0 0 0 0 0 0 0 0 0 0 0 0 0 0 0 0 0 0 0 0 0 0 0
0 0 0 0 0 0 0 0 0 0 0 0 0 0 0 0 0 0 0 0 0 0 0 0 0 0 0 0 0 0 0 0 0 0 0 0 0 0 0 0 0 0 0
0 0 0 0 0 0 0 0 0 0 0 0 0 0 0 0 0 0 0 0 0 0 0 0 0 0 0 0 0 0 0 0 0 0 0 0 0 0 0 0 0 0 0
0 0 0 0 0 0 0 0 0 0 0 0 0 0 0 0 0 0 0 0 0 0 0 0 0 0 0 0 0 0 0 0 0 0 0 0 0 0 0 0 0 0 0
0 0 0 0 0 0 0 0 0 0 0 0 0 0 0 0 0 0 0 0 0 0 0 0 0 0 0 0 0 0 0 0 0 0 0 0 0 0 0 0 0 0 0
0 0 0 0 0 0 0 0 0 0 0 0 0 0 0 0 0 0 0 0 0 0 0 0 0 0 0 0 0 0 0 0 0 0 0 0 0 0 0 0 0 0 0
0 0 0 0 0 0 0 0 0 0 0 0 0 0 0 0 0 0 0 0 0 0 0 0 0 0 0 0 0 0 0 0 0 0 0 0 0 0 0 0 0 0 0
0 0 0 0 0 0 0 0 0 0 0 0 0 0 0 0 0 0 0 0 0 0 0 0 0 0 0 0 0 0 0 0 0 0 0 0 0 0 0 0 0 0 0
0 0 0 0 0 0 0 0 0 0 0 0 0 0 0 0 0 0 0 0 0 0 0 0 0 0 0 0 0 0 0 0 0 0 0 0 0 0 0 0 0 0 0
0 0 0 0 0 0 0 0 0 0 0 0 0 0 0 0 0 0 0 0 0 0 0 0 0 0 0 0 0 0 0 0 0 0 0 0 0 0 0 0 0 0 0
Wind_Speed_500mb
38 34 37 40 39 35 32 36 34 27 26 22 19 16 13 10 10 10 10 12 12 17 27 20 24 22 20 19 19 20 22 22 22 24 29 32 23 16 14 13 9 14 17
44 41 40 41 39 36 38 37 36 27 24 18 13 10 8 8 12 14 16 15 17 20 22 21 26 27 25 22 23 24 23 23 26 25 24 26 24 21 19 17 14 9 8
45 46 45 41 40 43 41 37 33 29 22 14 9 7 10 13 16 18 18 18 19 21 21 20 22 24 24 22 21 20 19 18 18 18 19 21 20 21 19 18 17 15 13
48 50 49 43 46 43 41 38 31 25 18 12 9 10 14 18 19 19 18 18 19 19 20 19 18 18 18 18 17 16 16 14 13 15 18 10 18 20 16 16 15 14 14
52 53 51 46 46 44 38 33 29 23 16 12 12 12 13 16 20 19 18 16 17 17 16 15 15 14 13 13 12 12 12 11 11 11 12 9 14 16 19 18 16 15 14
53 53 54 48 40 41 37 31 26 19 15 14 12 12 12 14 17 13 14 15 14 13 12 11 11 11 10 10 10 11 11 11 11 11 11 14 16 17 21 23 22 19 16
54 52 52 46 41 38 33 29 22 18 15 14 12 10 10 13 17 16 15 12 10 8 7 7 7 7 8 10 11 11 13 14 13 14 14 17 20 18 21 24 24 23 24
53 52 50 45 41 38 33 27 21 17 15 13 13 11 10 10 9 8 9 8 5 3 3 4 6 8 11 12 13 14 15 16 16 14 15 17 18 19 23 24 24 24 23
46 51 53 48 42 36 31 26 22 18 15 14 13 13 11 9 7 5 2 2 1 1 3 5 7 10 12 14 16 17 17 18 16 14 16 17 19 22 25 26 25 25 25
41 45 54 50 46 41 33 26 22 18 15 15 15 14 14 11 8 6 5 4 5 5 6 8 10 11 12 14 16 16 16 16 14 18 19 20 20 24 29 29 29 28 28
41 41 53 51 47 40 32 27 25 20 15 16 16 15 13 11 11 6 6 6 6 7 9 11 12 12 14 15 15 18 18 18 20 24 21 22 24 28 32 33 33 31 29
45 39 47 45 43 39 35 30 26 22 18 14 16 14 13 12 14 11 7 7 8 10 11 11 13 14 14 14 17 20 22 22 24 22 23 22 26 31 31 34 33 29 27
44 44 42 46 44 43 40 37 32 28 23 19 18 16 15 16 15 10 12 15 13 12 11 13 12 13 14 16 19 22 23 24 25 25 24 26 30 32 28 30 29 31 30
51 48 43 43 40 38 28 33 32 31 29 22 21 18 19 18 16 18 22 18 15 13 13 13 13 14 15 18 21 21 24 27 30 28 27 29 30 32 30 28 31 36 33
50 55 49 43 44 43 44 36 32 22 24 19 17 19 18 19 20 22 20 18 17 16 16 15 14 15 17 21 23 25 26 32 32 32 31 32 31 27 31 27 30 36 34
47 50 48 45 46 46 43 37 28 25 23 21 22 24 23 23 23 22 21 22 20 19 19 19 18 19 22 25 25 27 31 33 32 29 30 32 32 30 30 24 30 32 29
46 41 40 37 42 49 46 42 35 27 26 28 28 27 27 27 26 26 27 26 23 22 22 22 20 24 25 25 27 31 29 30 28 31 28 25 31 29 27 26 32 29 28
45 45 39 37 38 40 42 42 42 36 34 34 32 30 32 32 30 31 32 31 28 27 27 26 25 28 24 26 30 31 33 37 35 32 34 24 29 21 25 26 26 26 26
50 48 43 40 39 38 37 38 38 39 38 36 36 35 31 31 29 30 31 30 29 29 30 29 29 27 28 29 28 33 34 40 41 36 30 26 27 20 17 22 24 23 23
47 47 44 43 40 39 38 39 38 38 38 38 36 35 32 31 31 31 30 29 31 33 34 33 34 31 31 32 34 35 35 35 31 27 23 27 20 14 20 24 18 20 26
41 40 40 44 43 42 46 47 44 43 38 36 35 32 32 31 32 34 33 32 32 35 35 37 37 33 33 33 38 38 35 26 21 19 19 17 14 14 21 22 19 25 25
42 35 35 33 34 37 38 39 39 38 42 40 38 38 37 36 37 38 39 36 35 35 36 37 38 37 39 38 30 28 17 32 11 5 11 11 12 17 15 18 22 24 28
44 44 42 38 35 33 33 32 32 35 37 34 32 32 32 31 31 36 39 40 39 38 36 41 41 41 42 36 31 20 9 6 19 11 7 8 11 6 12 17 23 28 32
39 44 46 47 45 42 42 43 42 42 41 38 35 33 30 31 32 35 38 40 39 42 42 43 42 42 41 32 30 30 26 27 15 9 9 14 11 12 17 22 26 31 30
33 35 42 45 47 49 50 52 51 50 48 43 35 29 28 29 29 28 27 30 34 38 43 42 41 38 37 28 30 29 29 26 21 23 25 12 11 20 26 21 26 27 26
29 35 35 35 39 43 47 49 50 48 45 42 40 37 39 41 41 41 40 42 40 36 37 36 35 33 26 27 25 28 27 22 21 21 27 25 20 20 13 20 20 23 29
Wind_Direction_500mb
168 173 167 166 163 158 150 140 140 148 137 137 139 139 138 138 133 133 125 118 103 96 101 89 84 84 101 93 83 76 73 73 72 69 63 52 43 48 50 55 73 65 69
160 171 165 160 158 153 148 148 151 148 141 141 144 145 138 126 122 118 116 114 108 100 105 87 81 80 84 87 81 79 78 74 65 53 54 53 40 42 48 51 51 42 40
165 166 160 154 152 147 150 153 153 156 153 158 151 130 126 126 119 113 112 111 104 96 95 90 82 79 78 79 80 78 78 79 80 77 37 31 35 34 35 41 39 36 27
168 163 159 153 151 150 154 158 162 165 173 170 138 124 133 125 117 113 110 106 98 92 91 89 84 81 78 77 73 70 69 65 64 65 67 351 8 16 11 21 25 20 18
168 161 159 154 157 158 159 162 166 166 165 158 140 138 142 139 131 115 113 106 100 94 89 86 81 75 67 59 54 50 48 42 31 33 35 357 345 357 355 358 353 353 354
167 162 160 157 157 161 163 162 163 160 159 153 146 146 132 122 125 117 120 111 102 95 89 80 69 58 47 40 32 24 20 18 6 352 359 344 343 341 346 343 343 343 334
167 164 165 163 160 162 166 168 167 161 162 159 156 149 138 121 132 122 111 109 104 80 72 58 44 31 18 8 4 2 358 356 351 335 333 347 339 344 343 341 338 335 336
166 165 168 168 165 167 172 175 174 172 170 170 163 157 161 150 142 136 126 122 120 97 63 24 3 358 358 1 0 359 357 351 344 338 340 344 347 351 344 340 337 334 331
168 168 171 170 171 173 174 183 182 183 182 187 180 166 169 174 174 175 151 111 57 323 328 336 341 346 349 350 349 350 352 345 343 345 338 346 345 343 339 334 331 329 329
176 180 177 176 179 181 182 185 187 189 189 189 189 184 182 187 192 204 225 255 280 296 321 333 337 338 341 342 338 339 350 354 351 344 340 338 332 334 332 328 325 326 322
188 191 184 183 185 188 191 193 194 194 193 198 195 191 185 186 193 193 212 235 269 305 323 331 329 328 332 332 334 339 350 343 340 343 337 332 330 328 327 325 322 322 319
187 180 183 189 192 195 198 199 201 201 199 194 195 195 193 204 211 209 208 250 277 292 301 306 309 318 327 330 329 333 333 329 329 328 319 322 319 317 319 322 321 320 321
188 182 189 197 191 200 202 199 202 208 208 207 205 209 212 215 235 242 269 272 279 282 288 295 304 311 320 322 327 329 322 321 315 311 309 306 306 309 315 320 324 322 320
191 190 196 202 192 190 196 205 209 216 208 208 211 211 219 223 240 250 261 266 267 271 286 294 302 315 319 323 317 312 316 316 320 319 315 307 308 310 333 316 322 323 320
196 198 203 208 202 193 197 209 210 213 212 213 227 236 241 246 246 251 259 265 274 289 294 296 303 303 309 312 314 314 314 320 325 311 309 310 315 330 328 315 316 320 321
202 205 211 210 207 207 209 214 222 222 216 224 237 242 246 250 253 256 259 263 270 279 284 286 289 299 305 302 293 302 325 328 324 317 309 307 309 313 308 304 313 316 322
207 205 208 209 205 208 217 225 228 226 230 237 243 248 253 257 259 259 260 261 267 270 271 274 285 289 291 299 296 306 324 321 318 320 320 327 305 295 294 296 306 311 319
210 212 208 214 212 208 211 221 226 228 232 242 249 253 256 258 259 259 261 262 265 265 266 272 278 280 282 289 302 314 320 312 313 310 312 312 316 293 296 305 303 312 316
209 211 213 216 219 219 216 216 221 231 241 247 251 254 255 259 262 261 260 261 261 261 263 269 274 282 286 290 306 310 310 305 306 302 299 304 305 302 306 303 308 311 313
211 216 218 222 224 224 227 229 231 235 239 242 246 250 255 260 262 266 267 265 262 263 266 269 273 274 280 281 293 303 314 312 306 295 286 290 302 297 309 308 304 312 312
208 213 216 221 228 230 228 228 231 235 242 247 253 256 259 264 265 268 270 268 262 262 267 270 263 268 271 273 289 305 317 325 316 300 283 301 299 299 298 303 310 315 312
207 210 216 226 229 230 233 236 239 242 240 249 251 256 256 258 258 261 268 268 267 265 260 259 265 264 263 272 284 304 322 327 352 309 283 286 277 295 285 309 302 311 313
193 198 207 216 232 241 245 246 242 244 248 247 252 252 254 252 258 258 258 261 264 260 260 264 265 265 270 268 284 283 292 264 305 286 247 249 316 249 298 300 298 313 323
212 217 215 217 217 220 230 236 234 232 246 253 261 257 251 255 260 261 259 259 258 259 263 262 262 267 267 261 279 277 267 273 277 264 240 239 230 261 301 298 305 316 324
225 236 235 235 234 233 235 238 243 245 246 248 245 245 242 245 253 254 258 254 254 258 259 261 262 264 265 262 268 270 271 274 247 263 277 212 226 282 292 289 301 305 315
233 232 238 236 233 232 234 238 239 242 247 252 255 252 251 254 256 256 255 257 258 259 259 261 261 260 256 258 259 268 272 258 250 252 258 262 264 277 262 282 295 307 309
Wind_Speed_850mb
38 34 37 40 39 35 32 36 34 27 26 22 19 16 13 10 10 10 10 12 12 17 27 20 24 22 20 19 19 20 22 22 22 24 29 32 23 16 14 13 9 14 17
44 41 40 41 39 36 38 37 36 27 24 18 13 10 8 8 12 14 16 15 17 20 22 21 26 27 25 22 23 24 23 23 26 25 24 26 24 21 19 17 14 9 8
45 46 45 41 40 43 41 37 33 29 22 14 9 7 10 13 16 18 18 18 19 21 21 20 22 24 24 22 21 20 19 18 18 18 19 21 20 21 19 18 17 15 13
48 50 49 43 46 43 41 38 31 25 18 12 9 10 14 18 19 19 18 18 19 19 20 19 18 18 18 18 17 16 16 14 13 15 18 10 18 20 16 16 15 14 14
52 53 51 46 46 44 38 33 29 23 16 12 12 12 13 16 20 19 18 16 17 17 16 15 15 14 13 13 12 12 12 11 11 11 12 9 14 16 19 18 16 15 14
53 53 54 48 40 41 37 31 26 19 15 14 12 12 12 14 17 13 14 15 14 13 12 11 11 11 10 10 10 11 11 11 11 11 11 14 16 17 21 23 22 19 16
54 52 52 46 41 38 33 29 22 18 15 14 12 10 10 13 17 16 15 12 10 8 7 7 7 7 8 10 11 11 13 14 13 14 14 17 20 18 21 24 24 23 24
53 52 50 45 41 38 33 27 21 17 15 13 13 11 10 10 9 8 9 8 5 3 3 4 6 8 11 12 13 14 15 16 16 14 15 17 18 19 23 24 24 24 23
46 51 53 48 42 36 31 26 22 18 15 14 13 13 11 9 7 5 2 2 1 1 3 5 7 10 12 14 16 17 17 18 16 14 16 17 19 22 25 26 25 25 25
41 45 54 50 46 41 33 26 22 18 15 15 15 14 14 11 8 6 5 4 5 5 6 8 10 11 12 14 16 16 16 16 14 18 19 20 20 24 29 29 29 28 28
41 41 53 51 47 40 32 27 25 20 15 16 16 15 13 11 11 6 6 6 6 7 9 11 12 12 14 15 15 18 18 18 20 24 21 22 24 28 32 33 33 31 29
45 39 47 45 43 39 35 30 26 22 18 14 16 14 13 12 14 11 7 7 8 10 11 11 13 14 14 14 17 20 22 22 24 22 23 22 26 31 31 34 33 29 27
44 44 42 46 44 43 40 37 32 28 23 19 18 16 15 16 15 10 12 15 13 12 11 13 12 13 14 16 19 22 23 24 25 25 24 26 30 32 28 30 29 31 30
51 48 43 43 40 38 28 33 32 31 29 22 21 18 19 18 16 18 22 18 15 13 13 13 13 14 15 18 21 21 24 27 30 28 27 29 30 32 30 28 31 36 33
50 55 49 43 44 43 44 36 32 22 24 19 17 19 18 19 20 22 20 18 17 16 16 15 14 15 17 21 23 25 26 32 32 32 31 32 31 27 31 27 30 36 34
47 50 48 45 46 46 43 37 28 25 23 21 22 24 23 23 23 22 21 22 20 19 19 19 18 19 22 25 25 27 31 33 32 29 30 32 32 30 30 24 30 32 29
46 41 40 37 42 49 46 42 35 27 26 28 28 27 27 27 26 26 27 26 23 22 22 22 20 24 25 25 27 31 29 30 28 31 28 25 31 29 27 26 32 29 28
45 45 39 37 38 40 42 42 42 36 34 34 32 30 32 32 30 31 32 31 28 27 27 26 25 28 24 26 30 31 33 37 35 32 34 24 29 21 25 26 26 26 26
50 48 43 40 39 38 37 38 38 39 38 36 36 35 31 31 29 30 31 30 29 29 30 29 29 27 28 29 28 33 34 40 41 36 30 26 27 20 17 22 24 23 23
47 47 44 43 40 39 38 39 38 38 38 38 36 35 32 31 31 31 30 29 31 33 34 33 34 31 31 32 34 35 35 35 31 27 23 27 20 14 20 24 18 20 26
41 40 40 44 43 42 46 47 44 43 38 36 35 32 32 31 32 34 33 32 32 35 35 37 37 33 33 33 38 38 35 26 21 19 19 17 14 14 21 22 19 25 25
42 35 35 33 34 37 38 39 39 38 42 40 38 38 37 36 37 38 39 36 35 35 36 37 38 37 39 38 30 28 17 32 11 5 11 11 12 17 15 18 22 24 28
44 44 42 38 35 33 33 32 32 35 37 34 32 32 32 31 31 36 39 40 39 38 36 41 41 41 42 36 31 20 9 6 19 11 7 8 11 6 12 17 23 28 32
39 44 46 47 45 42 42 43 42 42 41 38 35 33 30 31 32 35 38 40 39 42 42 43 42 42 41 32 30 30 26 27 15 9 9 14 11 12 17 22 26 31 30
33 35 42 45 47 49 50 52 51 50 48 43 35 29 28 29 29 28 27 30 34 38 43 42 41 38 37 28 30 29 29 26 21 23 25 12 11 20 26 21 26 27 26
29 35 35 35 39 43 47 49 50 48 45 42 40 37 39 41 41 41 40 42 40 36 37 36 35 33 26 27 25 28 27 22 21 21 27 25 20 20 13 20 20 23 29
Wind_Direction_850mb
168 173 167 166 163 158 150 140 140 148 137 137 139 139 138 138 133 133 125 118 103 96 101 89 84 84 101 93 83 76 73 73 72 69 63 52 43 48 50 55 73 65 69
160 171 165 160 158 153 148 148 151 148 141 141 144 145 138 126 122 118 116 114 108 100 105 87 81 80 84 87 81 79 78 74 65 53 54 53 40 42 48 51 51 42 40
165 166 160 154 152 147 150 153 153 156 153 158 151 130 126 126 119 113 112 111 104 96 95 90 82 79 78 79 80 78 78 79 80 77 37 31 35 34 35 41 39 36 27
168 163 159 153 151 150 154 158 162 165 173 170 138 124 133 125 117 113 110 106 98 92 91 89 84 81 78 77 73 70 69 65 64 65 67 351 8 16 11 21 25 20 18
168 161 159 154 157 158 159 162 166 166 165 158 140 138 142 139 131 115 113 106 100 94 89 86 81 75 67 59 54 50 48 42 31 33 35 357 345 357 355 358 353 353 354
167 162 160 157 157 161 163 162 163 160 159 153 146 146 132 122 125 117 120 111 102 95 89 80 69 58 47 40 32 24 20 18 6 352 359 344 343 341 346 343 343 343 334
167 164 165 163 160 162 166 168 167 161 162 159 156 149 138 121 132 122 111 109 104 80 72 58 44 31 18 8 4 2 358 356 351 335 333 347 339 344 343 341 338 335 336
166 165 168 168 165 167 172 175 174 172 170 170 163 157 161 150 142 136 126 122 120 97 63 24 3 358 358 1 0 359 357 351 344 338 340 344 347 351 344 340 337 334 331
168 168 171 170 171 173 174 183 182 183 182 187 180 166 169 174 174 175 151 111 57 323 328 336 341 346 349 350 349 350 352 345 343 345 338 346 345 343 339 334 331 329 329
176 180 177 176 179 181 182 185 187 189 189 189 189 184 182 187 192 204 225 255 280 296 321 333 337 338 341 342 338 339 350 354 351 344 340 338 332 334 332 328 325 326 322
188 191 184 183 185 188 191 193 194 194 193 198 195 191 185 186 193 193 212 235 269 305 323 331 329 328 332 332 334 339 350 343 340 343 337 332 330 328 327 325 322 322 319
187 180 183 189 192 195 198 199 201 201 199 194 195 195 193 204 211 209 208 250 277 292 301 306 309 318 327 330 329 333 333 329 329 328 319 322 319 317 319 322 321 320 321
188 182 189 197 191 200 202 199 202 208 208 207 205 209 212 215 235 242 269 272 279 282 288 295 304 311 320 322 327 329 322 321 315 311 309 306 306 309 315 320 324 322 320
191 190 196 202 192 190 196 205 209 216 208 208 211 211 219 223 240 250 261 266 267 271 286 294 302 315 319 323 317 312 316 316 320 319 315 307 308 310 333 316 322 323 320
196 198 203 208 202 193 197 209 210 213 212 213 227 236 241 246 246 251 259 265 274 289 294 296 303 303 309 312 314 314 314 320 325 311 309 310 315 330 328 315 316 320 321
202 205 211 210 207 207 209 214 222 222 216 224 237 242 246 250 253 256 259 263 270 279 284 286 289 299 305 302 293 302 325 328 324 317 309 307 309 313 308 304 313 316 322
207 205 208 209 205 208 217 225 228 226 230 237 243 248 253 257 259 259 260 261 267 270 271 274 285 289 291 299 296 306 324 321 318 320 320 327 305 295 294 296 306 311 319
210 212 208 214 212 208 211 221 226 228 232 242 249 253 256 258 259 259 261 262 265 265 266 272 278 280 282 289 302 314 320 312 313 310 312 312 316 293 296 305 303 312 316
209 211 213 216 219 219 216 216 221 231 241 247 251 254 255 259 262 261 260 261 261 261 263 269 274 282 286 290 306 310 310 305 306 302 299 304 305 302 306 303 308 311 313
211 216 218 222 224 224 227 229 231 235 239 242 246 250 255 260 262 266 267 265 262 263 266 269 273 274 280 281 293 303 314 312 306 295 286 290 302 297 309 308 304 312 312
208 213 216 221 228 230 228 228 231 235 242 247 253 256 259 264 265 268 270 268 262 262 267 270 263 268 271 273 289 305 317 325 316 300 283 301 299 299 298 303 310 315 312
207 210 216 226 229 230 233 236 239 242 240 249 251 256 256 258 258 261 268 268 267 265 260 259 265 264 263 272 284 304 322 327 352 309 283 286 277 295 285 309 302 311 313
193 198 207 216 232 241 245 246 242 244 248 247 252 252 254 252 258 258 258 261 264 260 260 264 265 265 270 268 284 283 292 264 305 286 247 249 316 249 298 300 298 313 323
212 217 215 217 217 220 230 236 234 232 246 253 261 257 251 255 260 261 259 259 258 259 263 262 262 267 267 261 279 277 267 273 277 264 240 239 230 261 301 298 305 316 324
225 236 235 235 234 233 235 238 243 245 246 248 245 245 242 245 253 254 258 254 254 258 259 261 262 264 265 262 268 270 271 274 247 263 277 212 226 282 292 289 301 305 315
233 232 238 236 233 232 234 238 239 242 247 252 255 252 251 254 256 256 255 257 258 259 259 261 261 260 256 258 259 268 272 258 250 252 258 262 264 277 262 282 295 307 309